Find Starlink 35658

NORAD ID: 66126 Int'l Des: 2025-237 Owner: SPXS Country: US Constellation: starlink operational
LEOCIRCULAR

当前视图

正在加载3D地球...

About Starlink 35658

Starlink 35658 (NORAD 66126) is a starlink constellation satellite (v2 mini) launched Oct 22, 2025 by SPXS of US. It operates in LEO, CIRCULAR orbit with a mass of 575.00 kg.

即将过境

Passes for default location (London). Set your location on the main map for personalized predictions.

高度历史

Loading altitude history...

两行轨道根数

1 66126U 25237N 26263.56175752 .00029871 00000-0 89128-3 0 9995
2 66126 53.1572 211.1065 0000770 237.2837 122.8091 15.34414779 52485
Epoch: Sep 20, 2026 • Age: 11 hours

当前状态

高度 464.7 km
远地点 / 近地点 N/A
速度 7.64 km/s
星下点 29.39°N, 134.98°W
发射日期 Oct 22, 2025
运行时间 0.9 years
类型 internet

技术详情

分类 Payload
质量 575.00 kg
干质量 530.00 kg
长度 0.30 m
跨度 29.00 m
形状 ? Box + pan
制造商 SPXS
平台类型 Starlink V2MO
阶段状态 In Orbit
所有者/国家 SPXS/US

Most Searched